Flag for Japan Weather past 2 weeks in Fukuoka, Japan

Now
86 °F

Broken clouds.


Feels Like: 99 °F
Forecast: 81 / 87 °F
Wind: 7 mph from South

Location: Fukuoka Airport

Current Time: Jul 25, 2014 at 3:53:06 PM

Latest Report: Jul 25, 2014 at 3:00 PM


Visibility: N/A

Pressure: 29.83 "Hg

Humidity: 79%

Dew point: 79 °F

Location of FukuokaLocation

Historic Weather in Fukuoka — Graph

°F

Fukuoka temperature yesterday

Maximum temperature yesterday: 91 °F (at 3:30 PM)
Minimum temperature yesterday: 82 °F (at 1:00 AM)
Average temperature yesterday: 85 °F

Past Weeks' High & Low Weather Summary

 TemperatureHumidityPressure
High91 °F (Jul 24, 3:30 PM)94% (Jul 10, 2:00 PM)29.95 "Hg (Jul 10, 2:00 PM)
Low66 °F (Jul 12, 6:30 PM)31% (Jul 11, 2:30 PM)29.33 "Hg (Jul 10, 2:00 PM)
Average81 °F77%29.77 "Hg
* Reported Jul 10 2:00 PM — Jul 25 2:30 PM, Fukuoka, Weather by CustomWeather, © 2014

Note: Actual official high and low records may vary slightly from our data, if they occured in-between our weather recording intervals... More about our weather records

Advertising

Fukuoka weather history for previous 24 hours

 ConditionsComfort  
Time TempWeatherWind HumidityBarometerVisibility
2:30 PM
Jul 25
84 °FSprinkles. Partly sunny.14 mph84%29.83 "HgN/A
2:00 PM91 °FPartly sunny.18 mph59%29.80 "HgN/A
1:30 PM91 °FBroken clouds.13 mph59%29.80 "HgN/A
1:00 PM90 °FBroken clouds.7 mph67%29.80 "HgN/A
12:30 PM86 °FSprinkles. Broken clouds.16 mph75%29.83 "HgN/A
11:30 AM90 °FBroken clouds.15 mph63%29.83 "HgN/A
11:00 AM90 °FSprinkles. Broken clouds.12 mph59%29.83 "HgN/A
10:30 AM90 °FBroken clouds.13 mph63%29.83 "HgN/A
10:00 AM88 °FBroken clouds.13 mph66%29.83 "HgN/A
9:30 AM88 °FScattered clouds.15 mph66%29.80 "HgN/A
9:00 AM88 °FScattered clouds.15 mph70%29.80 "HgN/A
8:30 AM86 °FPassing clouds.16 mph75%29.80 "HgN/A
8:00 AM86 °FPassing clouds.15 mph75%29.80 "HgN/A
7:30 AM86 °FPassing clouds.13 mph75%29.80 "HgN/A
7:00 AM84 °FPassing clouds.15 mph79%29.80 "HgN/A
6:30 AM82 °FPassing clouds.10 mph84%29.80 "HgN/A
6:00 AM82 °FPassing clouds.13 mph84%29.80 "HgN/A
5:30 AM82 °FScattered clouds.9 mph84%29.80 "HgN/A
5:00 AM82 °FPassing clouds.6 mph84%29.80 "HgN/A
4:30 AM82 °FPartly cloudy.6 mph84%29.77 "HgN/A
4:00 AM82 °FPartly cloudy.6 mph84%29.77 "HgN/A
3:30 AM82 °FPartly cloudy.9 mph84%29.77 "HgN/A
3:00 AM84 °FLight rain. Passing clouds.6 mph79%29.77 "HgN/A
2:30 AM82 °FLight rain. Passing clouds.8 mph84%29.77 "HgN/A
2:00 AM84 °FLight rain. Passing clouds.6 mph79%29.77 "HgN/A
1:30 AM84 °FPassing clouds.7 mph79%29.80 "HgN/A
1:00 AM82 °FPassing clouds.8 mph84%29.80 "HgN/A
12:30 AM82 °FPassing clouds.9 mph84%29.80 "HgN/A
12:00 AM82 °FPassing clouds.6 mph84%29.80 "HgN/A
11:30 PM
Jul 24
82 °FPassing clouds.10 mph84%29.80 "HgN/A
11:00 PM82 °FPassing clouds.9 mph84%29.80 "HgN/A
10:30 PM84 °FPassing clouds.8 mph79%29.80 "HgN/A
10:00 PM84 °FPassing clouds.8 mph79%29.77 "HgN/A
9:30 PM84 °FPassing clouds.3 mph79%29.77 "HgN/A
9:00 PM84 °FPassing clouds.3 mph79%29.77 "HgN/A
8:30 PM86 °FPassing clouds.6 mph75%29.77 "HgN/A
8:00 PM86 °FPassing clouds.3 mph75%29.74 "HgN/A
7:30 PM86 °FPassing clouds.3 mph75%29.74 "HgN/A
7:00 PM88 °FScattered clouds.5 mph70%29.74 "HgN/A
6:30 PM88 °FScattered clouds.7 mph70%29.74 "HgN/A
6:00 PM88 °FScattered clouds.9 mph70%29.74 "HgN/A
5:30 PM88 °FScattered clouds.9 mph70%29.74 "HgN/A
5:00 PM90 °FPassing clouds.12 mph67%29.74 "HgN/A
4:30 PM88 °FBroken clouds.10 mph66%29.74 "HgN/A
4:00 PM90 °FPartly sunny.10 mph63%29.74 "HgN/A
3:30 PM91 °FScattered clouds.7 mph63%29.71 "HgN/A
Weather by CustomWeather, © 2014

See weather overviewHow to use our weather pages